Time,TemperatureF,DewpointF,PressureIn,WindDirection,WindDirectionDegrees,WindSpeedMPH,WindSpeedGustMPH,Humidity,HourlyPrecipIn,Conditions,Clouds,dailyrainin,SoftwareType,DateUTC
2013-07-18 00:05:00,80.4,68.5,29.74,West,270,0.0,1.0,67,0.00,,,0.00,VWS V14.00,2013-07-18 04:05:00,
2013-07-18 00:06:00,80.4,68.5,29.74,West,270,0.0,1.0,67,0.00,,,0.00,VWS V14.00,2013-07-18 04:06:00,
2013-07-18 00:11:00,80.2,68.3,29.71,SSE,158,0.0,1.0,67,0.00,,,0.00,VWS V14.00,2013-07-18 04:11:00,
2013-07-18 00:16:00,80.2,68.3,29.71,WSW,248,0.0,1.0,67,0.00,,,0.00,VWS V14.00,2013-07-18 04:16:00,
2013-07-18 00:21:00,80.2,68.3,29.71,SSW,202,0.0,1.0,67,0.00,,,0.00,VWS V14.00,2013-07-18 04:21:00,
2013-07-18 00:26:00,80.1,68.1,29.71,East,90,0.0,1.0,67,0.00,,,0.00,VWS V14.00,2013-07-18 04:26:00,
2013-07-18 00:31:00,80.1,68.1,29.71,NNW,338,0.0,1.0,67,0.00,,,0.00,VWS V14.00,2013-07-18 04:31:00,
2013-07-18 00:36:00,79.9,67.9,29.71,East,90,0.0,1.0,67,0.00,,,0.00,VWS V14.00,2013-07-18 04:36:00,
2013-07-18 00:41:00,79.9,67.9,29.74,SW,225,2.0,3.0,67,0.00,,,0.00,VWS V14.00,2013-07-18 04:41:00,
2013-07-18 00:46:00,79.9,67.9,29.74,WSW,248,0.0,1.0,67,0.00,,,0.00,VWS V14.00,2013-07-18 04:46:00,
2013-07-18 01:20:00,79.5,68.0,29.74,South,180,0.0,1.0,68,0.00,,,0.00,VWS V14.00,2013-07-18 05:20:00,
2013-07-18 01:25:00,79.3,67.9,29.74,SE,135,0.0,1.0,68,0.00,,,0.00,VWS V14.00,2013-07-18 05:25:00,
2013-07-18 01:30:00,79.3,67.9,29.74,SSW,202,0.0,1.0,68,0.00,,,0.00,VWS V14.00,2013-07-18 05:30:00,
2013-07-18 01:35:00,79.3,68.3,29.74,WNW,292,0.0,1.0,69,0.00,,,0.00,VWS V14.00,2013-07-18 05:35:00,
2013-07-18 01:40:00,79.3,68.3,29.74,ESE,112,0.0,1.0,69,0.00,,,0.00,VWS V14.00,2013-07-18 05:40:00,
2013-07-18 01:45:00,79.3,68.3,29.74,SSW,202,0.0,1.0,69,0.00,,,0.00,VWS V14.00,2013-07-18 05:45:00,
2013-07-18 01:50:00,79.3,68.3,29.74,SE,135,0.0,1.0,69,0.00,,,0.00,VWS V14.00,2013-07-18 05:50:00,
2013-07-18 01:55:00,79.3,68.3,29.71,WNW,292,0.0,1.0,69,0.00,,,0.00,VWS V14.00,2013-07-18 05:55:00,
2013-07-18 02:00:00,79.2,68.1,29.71,SE,135,0.0,1.0,69,0.00,,,0.00,VWS V14.00,2013-07-18 06:00:00,
2013-07-18 02:05:00,79.2,68.1,29.71,NW,315,0.0,1.0,69,0.00,,,0.00,VWS V14.00,2013-07-18 06:05:00,
2013-07-18 02:10:00,79.2,68.1,29.71,SW,225,0.0,1.0,69,0.00,,,0.00,VWS V14.00,2013-07-18 06:10:00,
2013-07-18 02:15:00,79.2,68.1,29.71,SSW,202,0.0,1.0,69,0.00,,,0.00,VWS V14.00,2013-07-18 06:15:00,
2013-07-18 02:20:00,79.2,68.1,29.71,WNW,292,0.0,1.0,69,0.00,,,0.00,VWS V14.00,2013-07-18 06:20:00,
2013-07-18 02:25:00,79.0,67.9,29.71,WSW,248,0.0,1.0,69,0.00,,,0.00,VWS V14.00,2013-07-18 06:25:00,
2013-07-18 02:30:00,79.0,67.9,29.71,East,90,0.0,1.0,69,0.00,,,0.00,VWS V14.00,2013-07-18 06:30:00,
2013-07-18 02:35:00,79.0,67.9,29.71,SW,225,0.0,1.0,69,0.00,,,0.00,VWS V14.00,2013-07-18 06:35:00,
2013-07-18 02:40:00,79.0,67.9,29.71,North,0,0.0,1.0,69,0.00,,,0.00,VWS V14.00,2013-07-18 06:40:00,
2013-07-18 02:45:00,79.0,68.4,29.71,WSW,248,0.0,1.0,70,0.00,,,0.00,VWS V14.00,2013-07-18 06:45:00,
2013-07-18 02:50:00,79.0,68.4,29.71,East,90,0.0,1.0,70,0.00,,,0.00,VWS V14.00,2013-07-18 06:50:00,
2013-07-18 02:55:00,79.0,68.4,29.71,WNW,292,0.0,1.0,70,0.00,,,0.00,VWS V14.00,2013-07-18 06:55:00,
2013-07-18 03:00:00,78.8,68.2,29.71,NW,315,0.0,1.0,70,0.00,,,0.00,VWS V14.00,2013-07-18 07:00:00,
2013-07-18 03:05:00,78.8,68.2,29.71,SSE,158,0.0,1.0,70,0.00,,,0.00,VWS V14.00,2013-07-18 07:05:00,
2013-07-18 03:10:00,78.8,68.2,29.68,SW,225,0.0,1.0,70,0.00,,,0.00,VWS V14.00,2013-07-18 07:10:00,
2013-07-18 03:15:00,78.8,68.2,29.68,WSW,248,0.0,1.0,70,0.00,,,0.00,VWS V14.00,2013-07-18 07:15:00,
2013-07-18 03:20:00,78.8,68.2,29.68,WSW,248,0.0,1.0,70,0.00,,,0.00,VWS V14.00,2013-07-18 07:20:00,
2013-07-18 03:25:00,78.8,68.2,29.68,South,180,0.0,1.0,70,0.00,,,0.00,VWS V14.00,2013-07-18 07:25:00,
2013-07-18 03:30:00,78.8,68.2,29.68,NW,315,0.0,1.0,70,0.00,,,0.00,VWS V14.00,2013-07-18 07:30:00,
2013-07-18 03:35:00,78.6,68.4,29.68,WSW,248,0.0,1.0,71,0.00,,,0.00,VWS V14.00,2013-07-18 07:35:00,
2013-07-18 03:40:00,78.6,68.4,29.68,West,270,0.0,1.0,71,0.00,,,0.00,VWS V14.00,2013-07-18 07:40:00,
2013-07-18 03:45:00,78.6,68.4,29.68,West,270,0.0,1.0,71,0.00,,,0.00,VWS V14.00,2013-07-18 07:45:00,
2013-07-18 03:50:00,78.6,68.4,29.68,West,270,0.0,1.0,71,0.00,,,0.00,VWS V14.00,2013-07-18 07:50:00,
2013-07-18 03:55:00,78.6,68.4,29.68,East,90,0.0,1.0,71,0.00,,,0.00,VWS V14.00,2013-07-18 07:55:00,
2013-07-18 04:00:00,78.4,68.3,29.68,SW,225,0.0,1.0,71,0.00,,,0.00,VWS V14.00,2013-07-18 08:00:00,
2013-07-18 04:05:00,78.4,68.3,29.68,SSW,202,0.0,1.0,71,0.00,,,0.00,VWS V14.00,2013-07-18 08:05:00,
2013-07-18 04:10:00,78.4,68.3,29.68,WSW,248,0.0,1.0,71,0.00,,,0.00,VWS V14.00,2013-07-18 08:10:00,
2013-07-18 04:15:00,78.4,68.7,29.68,SW,225,0.0,1.0,72,0.00,,,0.00,VWS V14.00,2013-07-18 08:15:00,
2013-07-18 04:20:00,78.3,68.5,29.68,WNW,292,0.0,1.0,72,0.00,,,0.00,VWS V14.00,2013-07-18 08:20:00,
2013-07-18 04:25:00,78.3,68.5,29.68,South,180,0.0,1.0,72,0.00,,,0.00,VWS V14.00,2013-07-18 08:25:00,
2013-07-18 04:30:00,78.3,68.5,29.68,South,180,0.0,1.0,72,0.00,,,0.00,VWS V14.00,2013-07-18 08:30:00,
2013-07-18 04:35:00,78.3,68.5,29.68,South,180,0.0,1.0,72,0.00,,,0.00,VWS V14.00,2013-07-18 08:35:00,
2013-07-18 04:40:00,78.3,68.5,29.68,South,180,0.0,1.0,72,0.00,,,0.00,VWS V14.00,2013-07-18 08:40:00,
2013-07-18 04:45:00,78.3,68.5,29.68,WSW,248,0.0,1.0,72,0.00,,,0.00,VWS V14.00,2013-07-18 08:45:00,
2013-07-18 04:50:00,78.1,68.3,29.68,South,180,0.0,1.0,72,0.00,,,0.00,VWS V14.00,2013-07-18 08:50:00,
2013-07-18 04:55:00,78.1,68.3,29.68,South,180,0.0,1.0,72,0.00,,,0.00,VWS V14.00,2013-07-18 08:55:00,
2013-07-18 05:00:00,78.1,68.3,29.68,West,270,0.0,1.0,72,0.00,,,0.00,VWS V14.00,2013-07-18 09:00:00,
2013-07-18 05:05:00,78.1,68.3,29.68,SE,135,0.0,1.0,72,0.00,,,0.00,VWS V14.00,2013-07-18 09:05:00,
2013-07-18 05:10:00,78.1,68.3,29.68,West,270,0.0,1.0,72,0.00,,,0.00,VWS V14.00,2013-07-18 09:10:00,
2013-07-18 05:15:00,78.1,68.3,29.68,SSE,158,0.0,1.0,72,0.00,,,0.00,VWS V14.00,2013-07-18 09:15:00,
2013-07-18 05:20:00,78.1,68.3,29.68,SSW,202,0.0,1.0,72,0.00,,,0.00,VWS V14.00,2013-07-18 09:20:00,
2013-07-18 05:25:00,78.1,68.3,29.68,ESE,112,0.0,1.0,72,0.00,,,0.00,VWS V14.00,2013-07-18 09:25:00,
2013-07-18 05:30:00,77.9,68.2,29.68,ESE,112,0.0,1.0,72,0.00,,,0.00,VWS V14.00,2013-07-18 09:30:00,
2013-07-18 05:35:00,77.9,68.6,29.68,ESE,112,0.0,1.0,73,0.00,,,0.00,VWS V14.00,2013-07-18 09:35:00,
2013-07-18 05:40:00,77.9,68.6,29.71,NE,45,0.0,1.0,73,0.00,,,0.00,VWS V14.00,2013-07-18 09:40:00,
2013-07-18 05:45:00,77.9,68.6,29.71,NE,45,0.0,1.0,73,0.00,,,0.00,VWS V14.00,2013-07-18 09:45:00,
2013-07-18 05:50:00,77.9,68.6,29.71,NE,45,0.0,1.0,73,0.00,,,0.00,VWS V14.00,2013-07-18 09:50:00,
2013-07-18 05:55:00,77.9,68.6,29.71,NW,315,0.0,1.0,73,0.00,,,0.00,VWS V14.00,2013-07-18 09:55:00,
2013-07-18 06:00:00,77.9,68.6,29.71,WNW,292,0.0,1.0,73,0.00,,,0.00,VWS V14.00,2013-07-18 10:00:00,
2013-07-18 06:05:00,77.9,68.6,29.71,WNW,292,0.0,1.0,73,0.00,,,0.00,VWS V14.00,2013-07-18 10:05:00,
2013-07-18 06:10:00,77.9,68.6,29.71,West,270,0.0,1.0,73,0.00,,,0.00,VWS V14.00,2013-07-18 10:10:00,
2013-07-18 06:15:00,77.9,68.9,29.71,WSW,248,0.0,1.0,74,0.00,,,0.00,VWS V14.00,2013-07-18 10:15:00,
2013-07-18 06:20:00,77.9,68.9,29.71,West,270,0.0,1.0,74,0.00,,,0.00,VWS V14.00,2013-07-18 10:20:00,
2013-07-18 06:25:00,77.9,68.9,29.71,SSW,202,0.0,1.0,74,0.00,,,0.00,VWS V14.00,2013-07-18 10:25:00,
2013-07-18 06:30:00,78.1,69.1,29.71,South,180,0.0,1.0,74,0.00,,,0.00,VWS V14.00,2013-07-18 10:30:00,
2013-07-18 06:35:00,78.1,69.1,29.71,WSW,248,0.0,1.0,74,0.00,,,0.00,VWS V14.00,2013-07-18 10:35:00,
2013-07-18 06:40:00,78.1,69.1,29.71,West,270,0.0,1.0,74,0.00,,,0.00,VWS V14.00,2013-07-18 10:40:00,
2013-07-18 06:45:00,78.3,69.3,29.71,NW,315,0.0,1.0,74,0.00,,,0.00,VWS V14.00,2013-07-18 10:45:00,
2013-07-18 06:50:00,78.3,69.3,29.71,South,180,0.0,1.0,74,0.00,,,0.00,VWS V14.00,2013-07-18 10:50:00,
2013-07-18 06:55:00,78.4,69.5,29.71,SE,135,0.0,1.0,74,0.00,,,0.00,VWS V14.00,2013-07-18 10:55:00,
2013-07-18 07:00:00,78.6,69.7,29.71,South,180,0.0,1.0,74,0.00,,,0.00,VWS V14.00,2013-07-18 11:00:00,
2013-07-18 07:05:00,78.6,69.7,29.71,NNW,338,0.0,1.0,74,0.00,,,0.00,VWS V14.00,2013-07-18 11:05:00,
2013-07-18 07:10:00,78.8,69.8,29.74,North,0,0.0,3.0,74,0.00,,,0.00,VWS V14.00,2013-07-18 11:10:00,
2013-07-18 07:15:00,79.0,70.0,29.74,South,180,0.0,1.0,74,0.00,,,0.00,VWS V14.00,2013-07-18 11:15:00,
2013-07-18 07:20:00,79.2,70.2,29.74,NNW,338,0.0,1.0,74,0.00,,,0.00,VWS V14.00,2013-07-18 11:20:00,
2013-07-18 07:25:00,79.2,70.2,29.74,North,0,0.0,1.0,74,0.00,,,0.00,VWS V14.00,2013-07-18 11:25:00,
2013-07-18 07:30:00,79.3,70.3,29.74,NW,315,0.0,1.0,74,0.00,,,0.00,VWS V14.00,2013-07-18 11:30:00,
2013-07-18 07:35:00,79.5,70.5,29.74,ESE,112,0.0,1.0,74,0.00,,,0.00,VWS V14.00,2013-07-18 11:35:00,
2013-07-18 07:40:00,79.7,70.3,29.74,NNW,338,0.0,1.0,73,0.00,,,0.00,VWS V14.00,2013-07-18 11:40:00,
2013-07-18 07:45:00,80.1,70.6,29.74,NNW,338,0.0,1.0,73,0.00,,,0.00,VWS V14.00,2013-07-18 11:45:00,
2013-07-18 07:50:00,80.1,70.6,29.74,ENE,68,0.0,1.0,73,0.00,,,0.00,VWS V14.00,2013-07-18 11:50:00,
2013-07-18 07:55:00,80.2,70.8,29.74,NE,45,0.0,1.0,73,0.00,,,0.00,VWS V14.00,2013-07-18 11:55:00,
2013-07-18 08:00:00,80.4,71.0,29.74,North,0,0.0,1.0,73,0.00,,,0.00,VWS V14.00,2013-07-18 12:00:00,
2013-07-18 08:05:00,80.6,70.8,29.74,NNW,338,0.0,1.0,72,0.00,,,0.00,VWS V14.00,2013-07-18 12:05:00,
2013-07-18 08:10:00,80.8,70.9,29.74,NNW,338,0.0,1.0,72,0.00,,,0.00,VWS V14.00,2013-07-18 12:10:00,
2013-07-18 08:15:00,81.0,70.7,29.74,NE,45,0.0,1.0,71,0.00,,,0.00,VWS V14.00,2013-07-18 12:15:00,
2013-07-18 08:20:00,81.1,70.4,29.74,NW,315,0.0,1.0,70,0.00,,,0.00,VWS V14.00,2013-07-18 12:20:00,
2013-07-18 08:25:00,81.1,70.4,29.74,NW,315,0.0,1.0,70,0.00,,,0.00,VWS V14.00,2013-07-18 12:25:00,
2013-07-18 08:30:00,81.3,70.6,29.74,WSW,248,0.0,1.0,70,0.00,,,0.00,VWS V14.00,2013-07-18 12:30:00,
2013-07-18 08:35:00,81.5,70.4,29.74,NNW,338,0.0,1.0,69,0.00,,,0.00,VWS V14.00,2013-07-18 12:35:00,
2013-07-18 08:40:00,81.7,70.5,29.74,NW,315,0.0,1.0,69,0.00,,,0.00,VWS V14.00,2013-07-18 12:40:00,
2013-07-18 08:45:00,81.9,70.7,29.74,North,0,0.0,1.0,69,0.00,,,0.00,VWS V14.00,2013-07-18 12:45:00,
2013-07-18 08:50:00,82.0,70.9,29.74,NE,45,0.0,1.0,69,0.00,,,0.00,VWS V14.00,2013-07-18 12:50:00,
2013-07-18 08:55:00,82.2,71.0,29.74,North,0,0.0,1.0,69,0.00,,,0.00,VWS V14.00,2013-07-18 12:55:00,
2013-07-18 09:00:00,82.2,71.0,29.74,NW,315,0.0,1.0,69,0.00,,,0.00,VWS V14.00,2013-07-18 13:00:00,
2013-07-18 09:05:00,82.4,70.8,29.74,NW,315,0.0,1.0,68,0.00,,,0.00,VWS V14.00,2013-07-18 13:05:00,
2013-07-18 09:10:00,82.6,70.5,29.74,NNE,22,0.0,1.0,67,0.00,,,0.00,VWS V14.00,2013-07-18 13:10:00,
2013-07-18 09:15:00,82.8,70.7,29.74,North,0,0.0,1.0,67,0.00,,,0.00,VWS V14.00,2013-07-18 13:15:00,
2013-07-18 09:20:00,83.1,70.6,29.74,North,0,0.0,1.0,66,0.00,,,0.00,VWS V14.00,2013-07-18 13:20:00,
2013-07-18 09:25:00,83.8,70.8,29.74,NE,45,0.0,1.0,65,0.00,,,0.00,VWS V14.00,2013-07-18 13:25:00,
2013-07-18 09:30:00,84.4,71.3,29.74,NE,45,0.0,1.0,65,0.00,,,0.00,VWS V14.00,2013-07-18 13:30:00,
2013-07-18 09:35:00,84.9,70.9,29.74,NNW,338,0.0,1.0,63,0.00,,,0.00,VWS V14.00,2013-07-18 13:35:00,
2013-07-18 09:40:00,85.3,71.3,29.74,NNE,22,0.0,1.0,63,0.00,,,0.00,VWS V14.00,2013-07-18 13:40:00,
2013-07-18 09:45:00,85.8,71.3,29.74,East,90,0.0,1.0,62,0.00,,,0.00,VWS V14.00,2013-07-18 13:45:00,
2013-07-18 09:50:00,86.0,70.5,29.74,ENE,68,0.0,1.0,60,0.00,,,0.00,VWS V14.00,2013-07-18 13:50:00,
2013-07-18 09:55:00,86.5,71.0,29.74,North,0,0.0,1.0,60,0.00,,,0.00,VWS V14.00,2013-07-18 13:55:00,
2013-07-18 10:00:00,87.1,71.0,29.74,NE,45,0.0,1.0,59,0.00,,,0.00,VWS V14.00,2013-07-18 14:00:00,
2013-07-18 10:05:00,87.3,70.7,29.74,North,0,0.0,1.0,58,0.00,,,0.00,VWS V14.00,2013-07-18 14:05:00,
2013-07-18 10:10:00,87.6,70.5,29.74,North,0,0.0,1.0,57,0.00,,,0.00,VWS V14.00,2013-07-18 14:10:00,
2013-07-18 10:15:00,87.8,70.2,29.74,NE,45,0.0,1.0,56,0.00,,,0.00,VWS V14.00,2013-07-18 14:15:00,
2013-07-18 10:20:00,88.2,70.5,29.74,North,0,0.0,1.0,56,0.00,,,0.00,VWS V14.00,2013-07-18 14:20:00,
2013-07-18 10:25:00,88.2,69.4,29.74,NE,45,0.0,1.0,54,0.00,,,0.00,VWS V14.00,2013-07-18 14:25:00,
2013-07-18 10:30:00,88.5,70.3,29.74,NE,45,0.0,1.0,55,0.00,,,0.00,VWS V14.00,2013-07-18 14:30:00,
2013-07-18 10:35:00,88.5,70.3,29.74,North,0,0.0,1.0,55,0.00,,,0.00,VWS V14.00,2013-07-18 14:35:00,
2013-07-18 10:40:00,88.7,70.5,29.74,NNE,22,0.0,1.0,55,0.00,,,0.00,VWS V14.00,2013-07-18 14:40:00,
2013-07-18 10:45:00,89.1,71.9,29.74,NE,45,0.0,1.0,57,0.00,,,0.00,VWS V14.00,2013-07-18 14:45:00,
2013-07-18 10:50:00,89.2,71.0,29.74,North,0,0.0,1.0,55,0.00,,,0.00,VWS V14.00,2013-07-18 14:50:00,
2013-07-18 10:55:00,89.4,71.7,29.74,NNW,338,0.0,1.0,56,0.00,,,0.00,VWS V14.00,2013-07-18 14:55:00,
2013-07-18 11:00:00,89.4,71.1,29.74,North,0,0.0,1.0,55,0.00,,,0.00,VWS V14.00,2013-07-18 15:00:00,
2013-07-18 11:05:00,89.8,69.8,29.74,WSW,248,0.0,1.0,52,0.00,,,0.00,VWS V14.00,2013-07-18 15:05:00,
2013-07-18 11:10:00,90.0,70.6,29.74,North,0,0.0,1.0,53,0.00,,,0.00,VWS V14.00,2013-07-18 15:10:00,
2013-07-18 11:15:00,89.8,70.4,29.74,NE,45,0.0,1.0,53,0.00,,,0.00,VWS V14.00,2013-07-18 15:15:00,
2013-07-18 11:20:00,89.8,69.8,29.74,NE,45,6.3,7.3,52,0.00,,,0.00,VWS V14.00,2013-07-18 15:20:00,
2013-07-18 11:25:00,89.1,70.8,29.74,NNW,338,0.0,1.0,55,0.00,,,0.00,VWS V14.00,2013-07-18 15:25:00,
2013-07-18 11:30:00,89.2,70.4,29.74,WNW,292,0.0,1.0,54,0.00,,,0.00,VWS V14.00,2013-07-18 15:30:00,
2013-07-18 11:35:00,89.4,70.6,29.74,West,270,0.0,1.0,54,0.00,,,0.00,VWS V14.00,2013-07-18 15:35:00,
2013-07-18 11:40:00,89.6,70.2,29.74,North,0,0.0,1.0,53,0.00,,,0.00,VWS V14.00,2013-07-18 15:40:00,
2013-07-18 11:45:00,88.9,69.0,29.74,North,0,0.0,1.0,52,0.00,,,0.00,VWS V14.00,2013-07-18 15:45:00,
2013-07-18 11:50:00,88.7,68.8,29.74,NE,45,0.0,1.0,52,0.00,,,0.00,VWS V14.00,2013-07-18 15:50:00,
2013-07-18 11:55:00,88.3,68.5,29.74,NNE,22,0.0,1.0,52,0.00,,,0.00,VWS V14.00,2013-07-18 15:55:00,
2013-07-18 12:00:00,88.2,69.4,29.74,North,0,0.0,5.3,54,0.00,,,0.00,VWS V14.00,2013-07-18 16:00:00,
2013-07-18 12:05:00,87.8,68.6,29.74,North,0,10.2,11.2,53,0.00,,,0.00,VWS V14.00,2013-07-18 16:05:00,
2013-07-18 12:10:00,87.8,68.0,29.74,NNE,22,0.0,1.0,52,0.00,,,0.00,VWS V14.00,2013-07-18 16:10:00,
2013-07-18 12:15:00,86.0,65.2,29.74,NNE,22,7.0,8.0,50,0.00,,,0.00,VWS V14.00,2013-07-18 16:15:00,
2013-07-18 12:20:00,86.0,65.8,29.74,North,0,0.0,1.0,51,0.00,,,0.00,VWS V14.00,2013-07-18 16:20:00,
2013-07-18 12:25:00,86.5,66.3,29.74,NNW,338,0.0,1.0,51,0.00,,,0.00,VWS V14.00,2013-07-18 16:25:00,
2013-07-18 12:30:00,86.2,65.9,29.74,NNW,338,0.0,1.0,51,0.00,,,0.00,VWS V14.00,2013-07-18 16:30:00,
2013-07-18 12:35:00,86.0,65.8,29.74,NNW,338,0.0,1.0,51,0.00,,,0.00,VWS V14.00,2013-07-18 16:35:00,
2013-07-18 12:40:00,86.0,65.8,29.74,WSW,248,0.0,1.0,51,0.00,,,0.00,VWS V14.00,2013-07-18 16:40:00,
2013-07-18 12:45:00,86.0,66.3,29.74,NNW,338,0.0,1.0,52,0.00,,,0.00,VWS V14.00,2013-07-18 16:45:00,
2013-07-18 12:50:00,85.8,66.7,29.74,North,0,1.6,2.6,53,0.00,,,0.00,VWS V14.00,2013-07-18 16:50:00,
2013-07-18 12:55:00,86.0,66.9,29.74,WSW,248,0.0,1.0,53,0.00,,,0.00,VWS V14.00,2013-07-18 16:55:00,
2013-07-18 13:00:00,85.6,66.0,29.74,NNW,338,0.0,1.0,52,0.00,,,0.00,VWS V14.00,2013-07-18 17:00:00,
2013-07-18 13:05:00,85.1,65.5,29.74,NNW,338,4.7,5.7,52,0.00,,,0.00,VWS V14.00,2013-07-18 17:05:00,
2013-07-18 13:10:00,84.7,64.6,29.76,North,0,3.5,4.5,51,0.00,,,0.00,VWS V14.00,2013-07-18 17:10:00,
2013-07-18 13:15:00,84.6,65.0,29.76,WNW,292,5.9,6.9,52,0.00,,,0.00,VWS V14.00,2013-07-18 17:15:00,
2013-07-18 13:20:00,84.7,65.2,29.76,North,0,0.0,1.0,52,0.00,,,0.00,VWS V14.00,2013-07-18 17:20:00,
2013-07-18 13:25:00,84.7,65.2,29.76,North,0,5.9,6.9,52,0.00,,,0.00,VWS V14.00,2013-07-18 17:25:00,
2013-07-18 13:30:00,84.7,65.7,29.76,West,270,0.0,1.0,53,0.00,,,0.00,VWS V14.00,2013-07-18 17:30:00,
2013-07-18 13:35:00,84.0,64.5,29.76,NE,45,5.5,6.5,52,0.00,,,0.00,VWS V14.00,2013-07-18 17:35:00,
2013-07-18 13:40:00,83.8,64.9,29.74,WNW,292,0.0,1.0,53,0.00,,,0.00,VWS V14.00,2013-07-18 17:40:00,
2013-07-18 13:45:00,83.8,64.9,29.74,WNW,292,0.0,1.0,53,0.00,,,0.00,VWS V14.00,2013-07-18 17:45:00,
2013-07-18 13:50:00,83.8,64.9,29.74,ESE,112,0.0,1.0,53,0.00,,,0.00,VWS V14.00,2013-07-18 17:50:00,
2013-07-18 13:55:00,83.8,65.4,29.74,SW,225,0.0,1.0,54,0.00,,,0.00,VWS V14.00,2013-07-18 17:55:00,
2013-07-18 14:00:00,84.4,65.9,29.74,SSW,202,3.5,4.5,54,0.00,,,0.00,VWS V14.00,2013-07-18 18:00:00,
2013-07-18 14:05:00,84.6,65.0,29.74,North,0,0.0,1.0,52,0.00,,,0.00,VWS V14.00,2013-07-18 18:05:00,
2013-07-18 14:10:00,84.4,64.8,29.74,North,0,0.0,1.0,52,0.00,,,0.00,VWS V14.00,2013-07-18 18:10:00,
2013-07-18 14:15:00,84.0,65.1,29.74,North,0,0.0,1.0,53,0.00,,,0.00,VWS V14.00,2013-07-18 18:15:00,
2013-07-18 14:20:00,84.0,65.6,29.74,WNW,292,0.0,1.0,54,0.00,,,0.00,VWS V14.00,2013-07-18 18:20:00,
2013-07-18 14:25:00,83.8,64.9,29.74,West,270,0.0,1.0,53,0.00,,,0.00,VWS V14.00,2013-07-18 18:25:00,
2013-07-18 14:30:00,83.5,65.1,29.74,NW,315,0.0,1.0,54,0.00,,,0.00,VWS V14.00,2013-07-18 18:30:00,
2013-07-18 14:35:00,83.3,64.9,29.74,NNE,22,0.0,1.0,54,0.00,,,0.00,VWS V14.00,2013-07-18 18:35:00,
2013-07-18 14:40:00,83.1,64.8,29.74,WNW,292,0.0,1.0,54,0.00,,,0.00,VWS V14.00,2013-07-18 18:40:00,
2013-07-18 14:45:00,83.1,64.2,29.74,East,90,0.0,1.0,53,0.00,,,0.00,VWS V14.00,2013-07-18 18:45:00,
2013-07-18 14:50:00,83.1,64.8,29.74,West,270,0.0,1.0,54,0.00,,,0.00,VWS V14.00,2013-07-18 18:50:00,
2013-07-18 14:55:00,83.3,64.4,29.74,NE,45,0.0,1.0,53,0.00,,,0.00,VWS V14.00,2013-07-18 18:55:00,
2013-07-18 15:00:00,82.8,64.4,29.74,NNW,338,0.0,1.0,54,0.00,,,0.00,VWS V14.00,2013-07-18 19:00:00,
2013-07-18 15:05:00,82.8,64.4,29.74,NNE,22,0.0,1.0,54,0.00,,,0.00,VWS V14.00,2013-07-18 19:05:00,
2013-07-18 15:10:00,82.6,64.3,29.74,NNE,22,0.0,6.1,54,0.00,,,0.00,VWS V14.00,2013-07-18 19:10:00,
2013-07-18 15:15:00,82.6,64.3,29.74,WNW,292,0.0,1.0,54,0.00,,,0.00,VWS V14.00,2013-07-18 19:15:00,
2013-07-18 15:20:00,82.6,64.3,29.74,WNW,292,0.0,1.0,54,0.00,,,0.00,VWS V14.00,2013-07-18 19:20:00,
2013-07-18 15:25:00,82.6,64.3,29.71,NNE,22,0.0,1.0,54,0.00,,,0.00,VWS V14.00,2013-07-18 19:25:00,
2013-07-18 15:30:00,82.4,64.1,29.71,ESE,112,0.0,1.0,54,0.00,,,0.00,VWS V14.00,2013-07-18 19:30:00,
2013-07-18 15:35:00,81.9,64.1,29.71,West,270,0.0,1.0,55,0.00,,,0.00,VWS V14.00,2013-07-18 19:35:00,
2013-07-18 15:40:00,82.0,64.3,29.74,SW,225,0.0,1.0,55,0.00,,,0.00,VWS V14.00,2013-07-18 19:40:00,
2013-07-18 15:45:00,82.0,64.3,29.74,North,0,0.0,1.0,55,0.00,,,0.00,VWS V14.00,2013-07-18 19:45:00,
2013-07-18 15:50:00,81.9,64.1,29.74,West,270,0.0,4.5,55,0.00,,,0.00,VWS V14.00,2013-07-18 19:50:00,
2013-07-18 15:55:00,81.7,64.0,29.71,NNW,338,0.0,1.0,55,0.00,,,0.00,VWS V14.00,2013-07-18 19:55:00,
2013-07-18 16:00:00,81.7,64.5,29.71,North,0,0.0,1.0,56,0.00,,,0.00,VWS V14.00,2013-07-18 20:00:00,
2013-07-18 16:05:00,81.7,64.5,29.71,West,270,2.7,3.7,56,0.00,,,0.00,VWS V14.00,2013-07-18 20:05:00,
2013-07-18 16:10:00,81.3,64.1,29.71,SE,135,0.0,1.0,56,0.00,,,0.00,VWS V14.00,2013-07-18 20:10:00,
2013-07-18 16:15:00,81.1,64.5,29.71,NNE,22,0.0,1.0,57,0.00,,,0.00,VWS V14.00,2013-07-18 20:15:00,
2013-07-18 16:20:00,81.0,64.3,29.71,NW,315,1.6,3.7,57,0.00,,,0.00,VWS V14.00,2013-07-18 20:20:00,
2013-07-18 16:25:00,81.0,64.3,29.71,West,270,0.0,1.0,57,0.00,,,0.00,VWS V14.00,2013-07-18 20:25:00,
2013-07-18 16:30:00,81.0,64.8,29.71,NE,45,6.3,7.3,58,0.00,,,0.00,VWS V14.00,2013-07-18 20:30:00,
2013-07-18 16:35:00,80.8,64.6,29.71,WSW,248,0.0,1.0,58,0.00,,,0.00,VWS V14.00,2013-07-18 20:35:00,
2013-07-18 16:40:00,80.8,64.6,29.71,NE,45,0.0,1.0,58,0.00,,,0.00,VWS V14.00,2013-07-18 20:40:00,
2013-07-18 16:45:00,80.6,65.0,29.71,WSW,248,0.0,1.0,59,0.00,,,0.00,VWS V14.00,2013-07-18 20:45:00,
2013-07-18 16:50:00,80.4,64.8,29.71,West,270,0.0,1.0,59,0.00,,,0.00,VWS V14.00,2013-07-18 20:50:00,
2013-07-18 16:55:00,80.1,64.5,29.71,NW,315,0.0,1.0,59,0.00,,,0.00,VWS V14.00,2013-07-18 20:55:00,
2013-07-18 17:00:00,79.7,64.6,29.71,North,0,0.0,1.0,60,0.00,,,0.00,VWS V14.00,2013-07-18 21:00:00,
2013-07-18 17:05:00,79.5,64.9,29.71,North,0,0.0,1.0,61,0.00,,,0.00,VWS V14.00,2013-07-18 21:05:00,
2013-07-18 17:10:00,79.2,64.6,29.71,NW,315,0.0,1.0,61,0.00,,,0.00,VWS V14.00,2013-07-18 21:10:00,
2013-07-18 17:15:00,79.0,64.4,29.71,North,0,0.0,1.0,61,0.00,,,0.00,VWS V14.00,2013-07-18 21:15:00,
2013-07-18 17:20:00,79.0,64.9,29.71,ENE,68,0.0,5.7,62,0.00,,,0.00,VWS V14.00,2013-07-18 21:20:00,
2013-07-18 17:25:00,78.8,64.7,29.71,West,270,0.0,1.0,62,0.00,,,0.00,VWS V14.00,2013-07-18 21:25:00,
2013-07-18 17:30:00,79.0,64.9,29.71,West,270,0.0,1.0,62,0.00,,,0.00,VWS V14.00,2013-07-18 21:30:00,
2013-07-18 17:35:00,78.8,64.7,29.71,East,90,0.0,1.0,62,0.00,,,0.00,VWS V14.00,2013-07-18 21:35:00,
2013-07-18 17:40:00,78.6,65.0,29.71,NNE,22,0.0,1.0,63,0.00,,,0.00,VWS V14.00,2013-07-18 21:40:00,
2013-07-18 17:45:00,78.3,65.1,29.71,NNE,22,0.0,1.0,64,0.00,,,0.00,VWS V14.00,2013-07-18 21:45:00,
2013-07-18 17:50:00,78.3,65.1,29.71,SSW,202,0.0,1.0,64,0.00,,,0.00,VWS V14.00,2013-07-18 21:50:00,
2013-07-18 17:55:00,78.3,65.1,29.71,North,0,5.9,6.9,64,0.00,,,0.00,VWS V14.00,2013-07-18 21:55:00,
2013-07-18 18:00:00,78.1,64.9,29.71,SSW,202,0.0,1.0,64,0.00,,,0.00,VWS V14.00,2013-07-18 22:00:00,
2013-07-18 18:05:00,78.3,65.1,29.71,West,270,0.0,1.0,64,0.00,,,0.00,VWS V14.00,2013-07-18 22:05:00,
2013-07-18 18:10:00,78.3,65.1,29.68,SE,135,0.0,1.0,64,0.00,,,0.00,VWS V14.00,2013-07-18 22:10:00,
2013-07-18 18:15:00,78.3,65.1,29.68,South,180,0.0,1.0,64,0.00,,,0.00,VWS V14.00,2013-07-18 22:15:00,
2013-07-18 18:20:00,78.1,64.9,29.68,NNE,22,0.0,1.0,64,0.00,,,0.00,VWS V14.00,2013-07-18 22:20:00,
2013-07-18 18:25:00,78.1,65.4,29.68,East,90,0.0,1.0,65,0.00,,,0.00,VWS V14.00,2013-07-18 22:25:00,
2013-07-18 18:30:00,78.1,65.4,29.68,SSE,158,0.0,1.0,65,0.00,,,0.00,VWS V14.00,2013-07-18 22:30:00,
2013-07-18 18:35:00,77.9,65.6,29.68,North,0,0.0,1.0,66,0.00,,,0.00,VWS V14.00,2013-07-18 22:35:00,
2013-07-18 18:40:00,77.5,65.3,29.71,North,0,0.0,1.0,66,0.00,,,0.00,VWS V14.00,2013-07-18 22:40:00,
2013-07-18 18:45:00,77.5,65.3,29.71,West,270,0.0,1.0,66,0.00,,,0.00,VWS V14.00,2013-07-18 22:45:00,
2013-07-18 18:50:00,77.5,65.7,29.71,NNE,22,0.0,1.0,67,0.00,,,0.00,VWS V14.00,2013-07-18 22:50:00,
2013-07-18 18:55:00,77.4,65.6,29.68,NNW,338,0.0,1.0,67,0.00,,,0.00,VWS V14.00,2013-07-18 22:55:00,
2013-07-18 19:00:00,77.2,65.4,29.68,NNW,338,0.0,1.0,67,0.00,,,0.00,VWS V14.00,2013-07-18 23:00:00,
2013-07-18 19:05:00,77.2,65.8,29.68,ENE,68,0.0,1.0,68,0.00,,,0.00,VWS V14.00,2013-07-18 23:05:00,
2013-07-18 19:10:00,77.0,65.6,29.71,North,0,0.0,1.0,68,0.00,,,0.00,VWS V14.00,2013-07-18 23:10:00,
2013-07-18 19:15:00,77.0,65.6,29.71,NW,315,0.0,1.0,68,0.00,,,0.00,VWS V14.00,2013-07-18 23:15:00,
2013-07-18 19:20:00,77.2,65.8,29.71,NE,45,0.0,1.0,68,0.00,,,0.00,VWS V14.00,2013-07-18 23:20:00,
2013-07-18 19:25:00,76.8,65.9,29.71,NW,315,0.0,1.0,69,0.00,,,0.00,VWS V14.00,2013-07-18 23:25:00,
2013-07-18 19:30:00,76.6,65.7,29.71,North,0,0.0,1.0,69,0.00,,,0.00,VWS V14.00,2013-07-18 23:30:00,
2013-07-18 19:35:00,76.6,66.1,29.71,NE,45,0.0,1.0,70,0.00,,,0.00,VWS V14.00,2013-07-18 23:35:00,
2013-07-18 19:40:00,76.5,66.0,29.71,NW,315,0.0,1.0,70,0.00,,,0.00,VWS V14.00,2013-07-18 23:40:00,
2013-07-18 19:45:00,76.5,66.0,29.71,South,180,0.0,1.0,70,0.00,,,0.00,VWS V14.00,2013-07-18 23:45:00,
2013-07-18 19:50:00,76.5,66.0,29.71,NNE,22,0.0,1.0,70,0.00,,,0.00,VWS V14.00,2013-07-18 23:50:00,
2013-07-18 19:55:00,76.5,66.4,29.71,NW,315,0.0,1.0,71,0.00,,,0.00,VWS V14.00,2013-07-18 23:55:00,
2013-07-18 20:00:00,76.3,66.2,29.71,North,0,0.0,1.0,71,0.00,,,0.00,VWS V14.00,2013-07-19 00:00:00,
2013-07-18 20:05:00,76.3,66.6,29.71,North,0,0.0,1.0,72,0.00,,,0.00,VWS V14.00,2013-07-19 00:05:00,
2013-07-18 20:10:00,76.3,66.6,29.71,South,180,0.0,1.0,72,0.00,,,0.00,VWS V14.00,2013-07-19 00:10:00,
2013-07-18 20:15:00,76.3,66.6,29.71,NE,45,0.0,1.0,72,0.00,,,0.00,VWS V14.00,2013-07-19 00:15:00,
2013-07-18 20:20:00,76.3,66.6,29.71,NNW,338,0.0,1.0,72,0.00,,,0.00,VWS V14.00,2013-07-19 00:20:00,
2013-07-18 20:25:00,76.3,66.6,29.71,WSW,248,0.0,1.0,72,0.00,,,0.00,VWS V14.00,2013-07-19 00:25:00,
2013-07-18 20:30:00,76.3,66.6,29.71,WNW,292,0.0,1.0,72,0.00,,,0.00,VWS V14.00,2013-07-19 00:30:00,
2013-07-18 20:35:00,76.3,67.0,29.71,WSW,248,0.0,1.0,73,0.00,,,0.00,VWS V14.00,2013-07-19 00:35:00,
2013-07-18 20:40:00,76.1,67.2,29.71,NNE,22,0.0,1.0,74,0.00,,,0.00,VWS V14.00,2013-07-19 00:40:00,
2013-07-18 20:45:00,76.1,67.2,29.71,NW,315,0.0,1.0,74,0.00,,,0.00,VWS V14.00,2013-07-19 00:45:00,
2013-07-18 20:50:00,76.1,67.2,29.71,WNW,292,0.0,1.0,74,0.00,,,0.00,VWS V14.00,2013-07-19 00:50:00,
2013-07-18 20:55:00,76.3,67.4,29.68,WNW,292,0.0,1.0,74,0.00,,,0.00,VWS V14.00,2013-07-19 00:55:00,
2013-07-18 21:00:00,76.3,67.4,29.68,WSW,248,0.0,1.0,74,0.00,,,0.00,VWS V14.00,2013-07-19 01:00:00,
2013-07-18 21:05:00,76.3,67.4,29.68,WSW,248,0.0,1.0,74,0.00,,,0.00,VWS V14.00,2013-07-19 01:05:00,
2013-07-18 21:10:00,76.5,67.6,29.71,WSW,248,0.0,1.0,74,0.00,,,0.00,VWS V14.00,2013-07-19 01:10:00,
2013-07-18 21:15:00,76.3,67.4,29.71,WSW,248,0.0,1.0,74,0.00,,,0.00,VWS V14.00,2013-07-19 01:15:00,
2013-07-18 21:20:00,76.3,67.4,29.71,WSW,248,0.0,1.0,74,0.00,,,0.00,VWS V14.00,2013-07-19 01:20:00,
2013-07-18 21:25:00,76.5,67.6,29.71,WSW,248,0.0,1.0,74,0.00,,,0.00,VWS V14.00,2013-07-19 01:25:00,
2013-07-18 21:30:00,76.5,67.9,29.71,WSW,248,0.0,1.0,75,0.00,,,0.00,VWS V14.00,2013-07-19 01:30:00,
2013-07-18 21:35:00,76.5,67.9,29.71,WSW,248,0.0,1.0,75,0.00,,,0.00,VWS V14.00,2013-07-19 01:35:00,
2013-07-18 21:40:00,76.5,67.6,29.71,WSW,248,0.0,1.0,74,0.00,,,0.00,VWS V14.00,2013-07-19 01:40:00,
2013-07-18 21:45:00,76.5,67.9,29.71,WSW,248,0.0,1.0,75,0.00,,,0.00,VWS V14.00,2013-07-19 01:45:00,
2013-07-18 21:50:00,76.5,67.6,29.71,WSW,248,0.0,1.0,74,0.00,,,0.00,VWS V14.00,2013-07-19 01:50:00,
2013-07-18 21:55:00,76.6,68.1,29.71,WSW,248,0.0,1.0,75,0.00,,,0.00,VWS V14.00,2013-07-19 01:55:00,
2013-07-18 22:00:00,76.8,68.3,29.71,WSW,248,0.0,1.0,75,0.00,,,0.00,VWS V14.00,2013-07-19 02:00:00,
2013-07-18 22:05:00,77.0,68.5,29.71,South,180,0.0,1.0,75,0.00,,,0.00,VWS V14.00,2013-07-19 02:05:00,
2013-07-18 22:10:00,77.2,68.7,29.68,SSE,158,0.0,1.0,75,0.00,,,0.00,VWS V14.00,2013-07-19 02:10:00,
2013-07-18 22:15:00,77.4,68.8,29.68,SSE,158,0.0,1.0,75,0.00,,,0.00,VWS V14.00,2013-07-19 02:15:00,
2013-07-18 22:20:00,77.4,68.8,29.68,SSE,158,0.0,1.0,75,0.00,,,0.00,VWS V14.00,2013-07-19 02:20:00,
2013-07-18 22:25:00,77.4,68.8,29.68,North,0,0.0,1.0,75,0.00,,,0.00,VWS V14.00,2013-07-19 02:25:00,
2013-07-18 22:30:00,77.4,68.4,29.68,West,270,0.0,1.0,74,0.00,,,0.00,VWS V14.00,2013-07-19 02:30:00,
2013-07-18 22:35:00,77.4,68.4,29.68,West,270,0.0,1.0,74,0.00,,,0.00,VWS V14.00,2013-07-19 02:35:00,
2013-07-18 22:40:00,77.4,68.8,29.68,SW,225,0.0,1.0,75,0.00,,,0.00,VWS V14.00,2013-07-19 02:40:00,
2013-07-18 22:45:00,77.4,68.4,29.68,SW,225,0.0,1.0,74,0.00,,,0.00,VWS V14.00,2013-07-19 02:45:00,
2013-07-18 22:50:00,77.4,68.4,29.68,SW,225,0.0,1.0,74,0.00,,,0.00,VWS V14.00,2013-07-19 02:50:00,
2013-07-18 22:55:00,77.4,68.4,29.68,SW,225,0.0,1.0,74,0.00,,,0.00,VWS V14.00,2013-07-19 02:55:00,
2013-07-18 23:00:00,77.5,69.0,29.68,SW,225,0.0,1.0,75,0.00,,,0.00,VWS V14.00,2013-07-19 03:00:00,
2013-07-18 23:05:00,77.5,69.0,29.68,SW,225,0.0,1.0,75,0.00,,,0.00,VWS V14.00,2013-07-19 03:05:00,
2013-07-18 23:10:00,77.7,69.2,29.68,SW,225,0.0,1.0,75,0.00,,,0.00,VWS V14.00,2013-07-19 03:10:00,
2013-07-18 23:15:00,77.7,69.2,29.68,SW,225,0.0,1.0,75,0.00,,,0.00,VWS V14.00,2013-07-19 03:15:00,
2013-07-18 23:20:00,77.9,69.3,29.68,East,90,0.0,1.0,75,0.00,,,0.00,VWS V14.00,2013-07-19 03:20:00,
2013-07-18 23:25:00,78.3,69.7,29.68,NNW,338,0.0,1.0,75,0.00,,,0.00,VWS V14.00,2013-07-19 03:25:00,
2013-07-18 23:30:00,78.1,69.5,29.68,WNW,292,0.0,1.0,75,0.00,,,0.00,VWS V14.00,2013-07-19 03:30:00,
2013-07-18 23:35:00,77.9,69.3,29.68,NW,315,0.0,1.0,75,0.00,,,0.00,VWS V14.00,2013-07-19 03:35:00,
2013-07-18 23:40:00,77.7,68.8,29.68,North,0,0.0,1.0,74,0.00,,,0.00,VWS V14.00,2013-07-19 03:40:00,
2013-07-18 23:45:00,77.7,68.8,29.68,NNW,338,0.0,1.0,74,0.00,,,0.00,VWS V14.00,2013-07-19 03:45:00,
2013-07-18 23:50:00,77.5,69.0,29.68,SW,225,0.0,1.0,75,0.00,,,0.00,VWS V14.00,2013-07-19 03:50:00,
2013-07-18 23:55:00,77.5,68.6,29.68,WNW,292,0.0,1.0,74,0.00,,,0.00,VWS V14.00,2013-07-19 03:55:00,